www.pogodaiklimat.ru

Погода и климат >> Архив погоды >> Колумбия >> Араука


ПОГОДА в Арауке

  • Прогноз погоды в Арауке
  • Монитор погоды в Арауке

АРХИВ ПОГОДЫ в Арауке

Время (UTC), дата Ветер
(напр.,м/с)
 
Видим.   Явления Облачность Т
(С)
Тd
(С)
f
(%)
Тe
(С)
Тes
(С)
Комфортность P
(гПа)
Po
(гПа)
Тmin
(С)
Tmax
(С)
R
(мм)
R24
(мм)
S
(см)
12 16.09 штиль 0 14 км мгла 3/3 900 м
[St Ci fib]
+26.6 +26.0 97 +40 +42 очень
душно
1006.0 991.8 +24.3 0.0
18 16.09 нст 1 16 км мгла 5/5 360 м
[Cu Sc Ci fib]
+32.2 +24.3 63 +44 +56 опасность
перегрева
1003.6 989.4
21 16.09 ЮВ 1 14 км мгла 6/5 360 м
[Cu Sc As trans Cs]
+32.6 +24.7 63 +46 +48 опасность
перегрева
1001.6 987.4
12 17.09 СЗ 2 12 км мгла 8/6 450 м
[Cu Sc As trans Ci sp]
+24.8 +24.2 96 +34 +35 очень
душно
1006.0 991.8 +24.1
15 17.09 В 1 16 км мгла 6/5 450 м
[Cu Sc As trans Cs]
+29.8 +24.4 73 +42 +51 опасность
перегрева
1007.0 992.8
18 17.09 ЮЗ 2 16 км мгла 6/5 450 м
[Cu Sc As trans Cs]
+31.5 +23.1 61 +42 +51 опасность
перегрева
1003.9 989.6
21 17.09 Ю 2 10 км мгла 9/6 450 м
[Cu Sc As op Cs]
+25.8 +25.8 100 +38 +39 очень
душно
1002.4 988.3
00 18.09 штиль 0 12 км мгла 8/5 600 м
[Cu Sc As op Cs]
+25.8 +25.8 100 +38 +38 очень
душно
1002.1 988.0 +32.3
03 18.09 штиль 0 12 км мгла 8/4 600 м
[Cu Sc As op Cs]
+25.2 +25.2 100 +36 +36 очень
душно
1003.3 989.2
12 18.09 штиль 0 12 км мгла 8/6 700 м
[Cu Sc As trans Ci sp]
+24.8 +24.5 98 +35 +36 очень
душно
1004.8 990.5 +23.8 2
15 18.09 СВ 2 14 км мгла 6/5 360 м
[Cu med, cong As trans Cs]
+30.2 +25.7 77 +45 +53 опасность
перегрева
1005.4 991.1
18 18.09 ЮВ 2 14 км мгла 8/6 450 м
[Cu Sc As trans Cs]
+31.5 +23.1 61 +42 +48 опасность
перегрева
1002.1 987.8
21 18.09 СВ 2 16 км мгла 4/3 450 м
[Cu hum As trans Cs]
+32.8 +24.3 61 +45 +48 опасность
перегрева
985.2
00 19.09 штиль 0 16 км мгла 4/1 900 м
[Cu hum As trans Ci fib]
+27.5 +27.0 97 +43 +43 опасность
перегрева
1000.7 986.8 +33.1
12 19.09 ЮВ 1 14 км мгла 5/5 800 м
[St Ci sp]
+27.0 +26.7 98 +42 +43 опасность
перегрева
1003.3 989.0 +24.8
15 19.09 В 2 12 км мгла 8/6 450 м
[Cu Sc As trans Cs]
+29.6 +26.3 82 +45 +50 опасность
перегрева
1004.8 990.5
18 19.09 Ю 2 6000 м гроза без осадков {морось} 10/8 210 м
[Cu Sc As op]
+26.2 +25.5 96 +38 +39 очень
душно
1002.0 987.9
21 19.09 С 2 12 км мгла {гроза} 5/3 900 м
[Cu hum As op Cs]
+31.6 +23.5 62 +42 +45 опасность
перегрева
999.3 985.1
00 20.09 штиль 0 12 км мгла 8/5 600 м
[Cu Sc As op Cs]
+27.2 +26.5 96 +42 +42 опасность
перегрева
1000.9 986.9 +32.0
12 20.09 В 1 12 км мгла 3/3 900 м
[St Ci fib]
+26.6 +26.0 97 +40 +42 очень
душно
1004.8 990.5 +24.0 1
15 20.09 В 2 16 км мгла 4/4 450 м
[Cu hum Ci fib]
+31.6 +25.8 71 +47 +57 опасность
перегрева
1005.8 991.5
18 20.09 В 2 12 км мгла 6/5 450 м
[Cu Sc As op Cs]
+31.4 +26.2 74 +47 +56 опасность
перегрева
1002.5 988.5
21 20.09 В 2 12 км мгла 6/5 450 м
[Cu Sc As op Cs]
+33.1 +24.7 61 +46 +48 опасность
перегрева
1000.2 986.1
00 21.09 ЮЗ 3 8000 м осадки на расстоянии 10/6 300 м
[Cu Sc As op Cs]
+25.5 +23.9 91 +35 +35 очень
душно
1004.5 990.2 +32.7
03 21.09 З 3 6000 м осадки на расстоянии {гроза, морось} 10/10 300 м
[Cu Sc]
+23.3 +23.3 100 +33 +33 очень
душно
1006.4 992.2
12 21.09 штиль 0 8000 м мгла 10/10 450 м
[Cu Sc]
+23.7 +23.7 100 +32 +32 очень
душно
1006.4 992.1 +22.0 22
15 21.09 В 2 10 км мгла 9/8 300 м
[Cu Sc As op Cs]
+27.5 +24.8 85 +39 +42 очень
душно
1008.1 993.9
18 21.09 В 3 10 км мгла 8/6 300 м
[Cu Sc As op Cs]
+29.1 +24.9 78 +42 +47 опасность
перегрева
1006.0 991.8
21 21.09 штиль 0 12 км мгла 4/3 600 м
[Cu Sc As op Cs]
+31.4 +23.5 63 +42 +46 опасность
перегрева
1002.6 988.3
03 22.09 штиль 0 14 км мгла 4/3 900 м
[Cu hum As trans Ci fib]
+25.2 +25.2 100 +36 +36 очень
душно
1006.1 991.9
12 22.09 штиль 0 12 км мгла 4/4 300 м
[St Ci sp]
+24.4 +24.1 98 +34 +35 очень
душно
1006.8 992.5 +23.2
15 22.09 С 1 12 км мгла 5/5 600 м
[Cu Sc Ci sp]
+30.4 +25.1 73 +44 +54 опасность
перегрева
1007.9 993.6
18 22.09 СЗ 2 14 км мгла 5/5 500 м
[Cu Sc Ci sp]
+33.3 +22.3 53 +43 +52 опасность
перегрева
1004.6 990.2
21 22.09 СЗ 2 16 км мгла 4/4 500 м
[Cu hum Ci sp]
+26.0 +23.0 84 +35 +37 очень
душно
1002.5 988.2
00 23.09 Ю 2 9000 м мгла {гроза} 8/6 450 м
[Cu Sc As op Cs]
+26.1 +25.4 96 +38 +38 очень
душно
1004.5 990.4 +33.9

 

Местоположение метеостанции Араука (Колумбия): широта 7.07 долгота -70.73 высота над уровнем моря 128 м.

В архиве по умолчанию представлена погода в Арауке за последнюю неделю. Архивные данные за месяц целиком и за предыдущие месяцы, начиная с января 2011 года, Вы можете получить, выбрав интересующий диапазон дат из раскрывающегося списка и нажав кнопку "Ввод!".


*Определитесь, кто Вы:
робот инопланетянин человек

Внимание! Время в таблицах - всемирное. Для получения местного времени необходимо прибавить поправку, которая равна -5 ч.

Смотрите также архив погоды в соседних городах и на ближайших метеорологических станциях:

Погода в Гуасдуалито (Венесуэла) (19 км)
Погода в Мериде (Венесуэла) (177 км)
Погода в Баринасе (Венесуэла) (182 км)
Погода в Эль Вихии (Венесуэла) (201 км)
Погода в Сан-Антонио-дель-Тачира (Венесуэла) (209 км)
Погода в Кукуте (Колумбия) (218 км)
Погода в Гуанаре (Венесуэла) (243 км)
Погода в Валере (Венесуэла) (254 км)
Погода в Букараманге (Колумбия) (273 км)
Погода в Мене Гранде (Венесуэла) (307 км)

Пояснения к столбцам:

Ветер - указаны скорость ветра в м/с - средняя за 10 мин, порывы в срок и между сроками (в фигурных скобках) и направление, откуда дует ветер: С - северный, СВ - северо-восточный, В - восточный, ЮВ - юго-восточный, Ю - южный, ЮЗ - юго-западный, З - западный, СЗ - северо-западный.
Видимость - горизонтальная дальность видимости в метрах или километрах. При видимости от 1 до 10 км при отсутствии осадков обычно наблюдается дымка, при ухудшении видимости до 1 км и менее - туман. В сухую погоду видимость может ухудшаться дымом, пылью или мглою.
Явления - указаны атмосферные явления, наблюдавшиеся в срок или в последний час перед сроком; фигурными скобками обозначены явления, наблюдавшиеся между сроками (за 1-3 часа до срока); квадратными скобками обозначены град или гололедные отложения с указанием их диаметра в мм.
Облачность - указаны через наклонную черту общая и нижняя облачность в баллах и высота нижней границы облаков в метрах; квадратными скобками обозначены формы облаков: Ci - перистые, Cs - перисто-слоистые, Cc - перисто-кучевые, Ac - высококучевые, As - высокослоистые, Sc - слоисто-кучевые, Ns - слоисто-дождевые, Cu - кучевые, Cb - кучево-дождевые. Подробнее классификацию облаков см. в Атласе облаков (PDF).
T - Температура воздуха - температура, измеренная на высоте 2 м над землей.
Td - Температура точки росы - температура, при понижении до которой содержащийся в воздухе водяной пар достигнет насыщения.
f - Относительная влажность воздуха - влажноcть воздуха, измеренная на высоте 2 м над землей.
Te - Эффективная температура - температура, которую ощущает одетый по сезону человек в тени. Характеристика душности погоды. При расчете учитывается влияние влажности воздуха и скорости ветра на теплоощущения человека.
Tes - Эффективная температура на солнце - температура, которую ощущает человек, с поправкой на солнечный нагрев. Характеристика знойности погоды. Зависит от высоты солнца над горизонтом, облачности и скорости ветра. Ночью, в пасмурную погоду, а также при ветре 12 м/с и более поправка равна нулю.
P - Атмосферное давление - приведенное к уровню моря атмосферное давление.
Po - Атмосферное давление - измеренное на уровне метеостанции атмосферное давление.
Tmin - Минимальная температура - минимум температуры воздуха на высоте 2 м над землей.
Tmax - Максимальная температура - максимум температуры воздуха на высоте 2 м над землей.
R - Количество осадков - Количество выпавших осадков за период времени, мм. При наведении курсора мыши на число - период времени, за который выпало указанное количество осадков.
R24 - Количество осадков - Количество выпавших осадков за 24 часа, мм.
S - Снежный покров - Высота снежного покрова, см. При наведении курсора мыши на число - состояние снежного покрова и степень покрытия местности в баллах.